contact:dominique.lefevre@mio.osupytheas.fr, maurice.libes@osupytheas.fr, didier.mallarino@osupytheas.fr
Project:EMSO http://www.emso-fr.org/EMSO-France
Depth: 2436.0 m
Title:EMSO Ligure Ouest : Data MII capteur AQUADOPP
Date,Latitude,Longitude,X_East,Y_North,Z_Up,Amplitude_X,Amplitude_Y,Amplitude_Z,Batterie,SoundSpeed,Heading,Pitch,Roll,Pressure,TIS,Speed,Direction
, degrees North, degrees East, m.s-1, m.s-1,m.s-1, 1, 1, 1, Volt, m.s-1, degree, degree, degree, dbar, degree_C, m.s-1, degree
2021-11-17T00:04:03,42.805,6.029,-0.036,0.009,0.008,101.0,101.0,100.0,13.3,1505.2,330.3,-0.8,1.8,2470.551,13.28,0.037,284.0
2021-11-17T00:07:03,42.805,6.029,-0.075,0.006,-0.044,101.0,100.0,100.0,13.4,1505.2,326.9,-0.7,1.8,2470.561,13.28,0.075,274.6
2021-11-17T00:10:03,42.805,6.029,-0.04,-0.014,-0.047,101.0,100.0,100.0,13.3,1505.2,325.3,-0.8,1.8,2470.549,13.28,0.042,250.7
2021-11-17T00:13:03,42.805,6.029,-0.04,0.016,-0.013,101.0,99.0,101.0,13.3,1505.2,331.5,-0.8,1.8,2470.553,13.28,0.043,291.8
2021-11-17T00:16:03,42.805,6.029,-0.024,0.0,-0.042,101.0,100.0,100.0,13.4,1505.2,329.6,-0.8,1.8,2470.516,13.28,0.024,270.0
2021-11-17T00:19:03,42.805,6.029,-0.031,0.008,-0.032,100.0,100.0,101.0,13.3,1505.2,331.5,-0.7,1.8,2470.515,13.28,0.032,284.5
2021-11-17T00:22:03,42.805,6.029,-0.031,0.001,-0.033,101.0,101.0,100.0,13.4,1505.2,331.2,-0.8,1.8,2470.522,13.28,0.031,271.8
2021-11-17T00:25:03,42.805,6.029,-0.055,-0.005,-0.032,101.0,99.0,100.0,13.4,1505.2,329.7,-0.8,1.8,2470.552,13.28,0.055,264.8
2021-11-17T00:28:03,42.805,6.029,-0.051,0.023,-0.012,100.0,100.0,100.0,13.3,1505.2,327.8,-0.8,1.8,2470.562,13.28,0.055,294.3
2021-11-17T00:31:03,42.805,6.029,-0.045,0.011,-0.013,100.0,100.0,100.0,13.4,1505.2,325.8,-0.8,1.8,2470.562,13.28,0.046,283.7
2021-11-17T00:34:03,42.805,6.029,-0.076,0.012,-0.034,101.0,100.0,101.0,13.4,1505.2,326.8,-0.8,1.8,2470.551,13.28,0.076,279.0
2021-11-17T00:37:03,42.805,6.029,-0.052,0.008,-0.048,100.0,100.0,100.0,13.3,1505.2,329.9,-0.8,1.8,2470.518,13.28,0.052,278.7
2021-11-17T00:40:03,42.805,6.029,-0.037,-0.005,-0.025,101.0,99.0,101.0,13.4,1505.2,328.9,-0.8,1.8,2470.528,13.28,0.037,262.3
2021-11-17T00:43:03,42.805,6.029,-0.054,0.009,-0.016,103.0,101.0,99.0,13.3,1505.2,325.9,-0.7,1.8,2470.519,13.28,0.054,279.5
2021-11-17T00:46:03,42.805,6.029,-0.063,-0.002,-0.061,100.0,100.0,100.0,13.4,1505.2,330.9,-0.8,1.9,2470.516,13.28,0.063,268.2
2021-11-17T00:49:03,42.805,6.029,-0.071,0.017,-0.014,100.0,101.0,100.0,13.4,1505.2,329.2,-0.7,1.8,2470.558,13.28,0.073,283.5
2021-11-17T00:52:03,42.805,6.029,-0.054,0.007,-0.015,100.0,101.0,100.0,13.3,1505.2,325.5,-0.8,1.8,2470.535,13.28,0.054,277.4
2021-11-17T00:55:03,42.805,6.029,-0.049,0.024,-0.041,99.0,100.0,101.0,13.4,1505.2,328.1,-0.8,1.8,2470.559,13.28,0.054,296.1
2021-11-17T00:58:03,42.805,6.029,-0.054,0.01,-0.056,101.0,101.0,99.0,13.4,1505.2,329.4,-0.8,1.8,2470.523,13.28,0.054,280.5
2021-11-17T01:04:02,42.805,6.029,-0.013,-0.017,-0.018,102.0,102.0,102.0,13.3,1505.2,331.4,-0.8,1.8,2470.643,13.28,0.021,217.4
2021-11-17T01:07:03,42.805,6.029,-0.046,0.0,0.004,102.0,101.0,101.0,13.4,1505.2,326.3,-0.8,1.8,2470.596,13.28,0.046,270.0
2021-11-17T01:10:03,42.805,6.029,-0.052,0.017,-0.024,101.0,101.0,101.0,13.4,1505.2,329.2,-0.7,1.8,2470.579,13.28,0.054,288.1
2021-11-17T01:13:03,42.805,6.029,-0.053,0.01,-0.009,101.0,100.0,100.0,13.4,1505.2,327.1,-0.7,1.8,2470.573,13.28,0.053,280.7
2021-11-17T01:16:03,42.805,6.029,-0.03,0.013,-0.005,102.0,99.0,99.0,13.4,1505.2,330.6,-0.7,1.8,2470.552,13.28,0.032,293.4
2021-11-17T01:19:03,42.805,6.029,-0.04,-0.024,-0.062,101.0,101.0,99.0,13.3,1505.2,328.9,-0.8,1.8,2470.555,13.28,0.046,239.0
2021-11-17T01:22:03,42.805,6.029,-0.046,-0.004,0.003,101.0,101.0,100.0,13.3,1505.2,328.3,-0.7,1.8,2470.56,13.28,0.046,265.0
2021-11-17T01:25:03,42.805,6.029,-0.044,0.015,-0.023,99.0,101.0,101.0,13.4,1505.2,324.6,-0.8,1.8,2470.547,13.28,0.046,288.8
2021-11-17T01:28:03,42.805,6.029,-0.044,0.019,-0.017,100.0,101.0,100.0,13.3,1505.2,327.0,-0.7,1.8,2470.58,13.28,0.047,293.4
2021-11-17T01:31:03,42.805,6.029,-0.069,-0.014,-0.031,100.0,100.0,100.0,13.3,1505.2,326.2,-0.8,1.8,2470.579,13.28,0.07,258.5
2021-11-17T01:34:03,42.805,6.029,-0.031,0.0,-0.022,101.0,101.0,100.0,13.3,1505.2,326.2,-0.8,1.8,2470.535,13.28,0.03,270.0
2021-11-17T01:37:03,42.805,6.029,-0.042,0.005,-0.022,101.0,101.0,100.0,13.4,1505.2,325.8,-0.7,1.8,2470.584,13.28,0.042,276.8
2021-11-17T01:40:03,42.805,6.029,-0.046,-0.01,-0.058,101.0,100.0,101.0,13.4,1505.2,325.5,-0.8,1.8,2470.594,13.28,0.047,257.7
2021-11-17T01:43:03,42.805,6.029,-0.033,0.007,-0.03,101.0,101.0,100.0,13.3,1505.2,330.3,-0.8,1.8,2470.55,13.28,0.033,282.0
2021-11-17T01:46:03,42.805,6.029,-0.053,-0.003,-0.039,101.0,101.0,100.0,13.4,1505.2,327.6,-0.8,1.8,2470.58,13.28,0.053,266.8
2021-11-17T01:49:03,42.805,6.029,-0.039,0.005,-0.017,102.0,100.0,101.0,13.4,1505.2,330.9,-0.8,1.8,2470.594,13.28,0.039,277.3
2021-11-17T01:52:03,42.805,6.029,-0.052,-0.001,-0.023,101.0,101.0,101.0,13.4,1505.2,327.2,-0.7,1.8,2470.567,13.28,0.052,268.9
2021-11-17T01:55:03,42.805,6.029,-0.046,0.001,-0.046,100.0,101.0,100.0,13.3,1505.2,331.3,-0.8,1.8,2470.569,13.28,0.046,271.2
2021-11-17T01:58:03,42.805,6.029,-0.032,0.014,-0.05,100.0,101.0,101.0,13.4,1505.2,326.5,-0.8,1.8,2470.604,13.28,0.034,293.6
2021-11-17T02:04:02,42.805,6.029,-0.05,-0.001,-0.022,101.0,100.0,101.0,13.4,1505.2,330.1,-0.8,1.8,2470.609,13.28,0.05,268.9
2021-11-17T02:07:03,42.805,6.029,-0.036,0.01,0.004,101.0,100.0,101.0,13.4,1505.2,329.2,-0.8,1.8,2470.607,13.28,0.037,285.5
2021-11-17T02:10:03,42.805,6.029,-0.045,0.0,-0.016,102.0,100.0,100.0,13.3,1505.2,326.2,-0.8,1.8,2470.595,13.28,0.045,270.0
2021-11-17T02:13:03,42.805,6.029,-0.061,0.003,-0.027,100.0,100.0,99.0,13.4,1505.2,329.0,-0.8,1.8,2470.643,13.28,0.061,272.8
2021-11-17T02:16:03,42.805,6.029,-0.022,0.003,-0.008,101.0,100.0,100.0,13.4,1505.2,331.7,-0.8,1.8,2470.608,13.28,0.022,277.8
2021-11-17T02:19:03,42.805,6.029,-0.058,0.005,-0.052,101.0,100.0,101.0,13.4,1505.2,325.4,-0.8,1.8,2470.615,13.28,0.058,274.9
2021-11-17T02:22:03,42.805,6.029,-0.058,0.016,-0.011,100.0,99.0,102.0,13.4,1505.2,325.2,-0.7,1.8,2470.587,13.28,0.06,285.4
2021-11-17T02:25:03,42.805,6.029,-0.046,0.006,-0.005,100.0,100.0,101.0,13.4,1505.2,328.1,-0.8,1.8,2470.607,13.28,0.046,277.4
2021-11-17T02:28:03,42.805,6.029,-0.074,-0.009,-0.056,100.0,100.0,100.0,13.3,1505.2,327.0,-0.8,1.9,2470.577,13.28,0.074,263.1
2021-11-17T02:31:03,42.805,6.029,-0.046,-0.001,-0.037,101.0,100.0,100.0,13.4,1505.2,331.2,-0.7,1.8,2470.594,13.28,0.046,268.8
2021-11-17T02:34:03,42.805,6.029,-0.032,0.007,-0.02,100.0,100.0,100.0,13.4,1505.2,331.3,-0.8,1.8,2470.622,13.28,0.032,282.3
2021-11-17T02:37:03,42.805,6.029,-0.031,-0.022,-0.064,99.0,100.0,101.0,13.4,1505.2,326.4,-0.8,1.8,2470.601,13.28,0.038,234.6
2021-11-17T02:40:03,42.805,6.029,-0.044,-0.008,-0.033,101.0,100.0,100.0,13.4,1505.2,326.5,-0.8,1.8,2470.607,13.28,0.044,259.7
2021-11-17T02:43:03,42.805,6.029,-0.057,0.004,-0.03,101.0,102.0,100.0,13.4,1505.2,331.3,-0.7,1.8,2470.649,13.28,0.057,274.0
2021-11-17T02:46:03,42.805,6.029,-0.05,0.001,-0.034,101.0,99.0,101.0,13.4,1505.2,330.5,-0.8,1.8,2470.602,13.28,0.05,271.1
2021-11-17T02:49:03,42.805,6.029,-0.029,0.002,-0.07,101.0,101.0,100.0,13.4,1505.2,328.1,-0.8,1.8,2470.614,13.28,0.029,273.9
2021-11-17T02:52:03,42.805,6.029,-0.041,0.014,-0.046,100.0,100.0,100.0,13.4,1505.2,326.5,-0.7,1.8,2470.62,13.28,0.043,288.9
2021-11-17T02:55:03,42.805,6.029,-0.054,-0.01,-0.039,100.0,100.0,100.0,13.3,1505.2,325.8,-0.7,1.8,2470.588,13.28,0.054,259.5
2021-11-17T02:58:03,42.805,6.029,-0.039,-0.015,-0.024,101.0,101.0,100.0,13.4,1505.2,329.5,-0.7,1.8,2470.651,13.28,0.041,249.0
2021-11-17T03:04:02,42.805,6.029,-0.03,0.018,0.0,101.0,99.0,101.0,13.4,1505.2,327.2,-0.8,1.8,2470.661,13.28,0.034,301.0
2021-11-17T03:07:03,42.805,6.029,-0.031,0.0,-0.021,101.0,100.0,100.0,13.4,1505.2,326.5,-0.7,1.8,2470.62,13.28,0.03,270.0
2021-11-17T03:10:03,42.805,6.029,-0.037,-0.005,-0.046,101.0,101.0,100.0,13.4,1505.2,326.8,-0.8,1.8,2470.656,13.28,0.037,262.3
2021-11-17T03:13:03,42.805,6.029,-0.042,0.022,-0.02,100.0,101.0,101.0,13.4,1505.2,327.2,-0.8,1.8,2470.664,13.28,0.047,297.6
2021-11-17T03:16:03,42.805,6.029,-0.055,-0.009,-0.014,102.0,99.0,100.0,13.3,1505.2,330.1,-0.8,1.8,2470.641,13.28,0.055,260.7
2021-11-17T03:19:03,42.805,6.029,-0.05,0.008,-0.028,99.0,101.0,100.0,13.4,1505.2,327.0,-0.7,1.8,2470.671,13.28,0.05,279.1
2021-11-17T03:22:03,42.805,6.029,-0.053,0.009,-0.038,102.0,99.0,100.0,13.4,1505.2,329.4,-0.7,1.8,2470.668,13.28,0.053,279.6
2021-11-17T03:25:03,42.805,6.029,-0.053,-0.01,-0.049,102.0,98.0,100.0,13.4,1505.2,327.4,-0.7,1.8,2470.631,13.28,0.053,259.3
2021-11-17T03:28:03,42.805,6.029,-0.02,0.007,-0.047,103.0,102.0,99.0,13.4,1505.2,327.3,-0.8,1.8,2470.64,13.28,0.021,289.3
2021-11-17T03:31:03,42.805,6.029,-0.048,0.001,-0.018,100.0,101.0,101.0,13.4,1505.2,326.7,-0.7,1.8,2470.657,13.28,0.048,271.2
2021-11-17T03:34:03,42.805,6.029,-0.044,0.008,-0.017,101.0,100.0,100.0,13.3,1505.2,330.2,-0.7,1.8,2470.653,13.28,0.044,280.3
2021-11-17T03:37:03,42.805,6.029,-0.043,0.008,0.002,100.0,101.0,100.0,13.4,1505.2,327.9,-0.7,1.8,2470.701,13.28,0.043,280.5
2021-11-17T03:40:03,42.805,6.029,-0.042,0.001,-0.03,100.0,102.0,100.0,13.4,1505.2,331.5,-0.8,1.8,2470.662,13.28,0.042,271.4
2021-11-17T03:43:03,42.805,6.029,-0.035,0.0,0.007,101.0,101.0,100.0,13.4,1505.2,329.4,-0.7,1.9,2470.642,13.28,0.035,270.0
2021-11-17T03:46:03,42.805,6.029,-0.036,0.024,-0.036,102.0,99.0,100.0,13.4,1505.2,330.4,-0.7,1.8,2470.647,13.28,0.043,303.7
2021-11-17T03:49:03,42.805,6.029,-0.031,-0.002,-0.028,102.0,100.0,100.0,13.4,1505.2,328.6,-0.7,1.8,2470.652,13.28,0.031,266.3
2021-11-17T03:52:03,42.805,6.029,-0.039,0.005,-0.021,100.0,101.0,100.0,13.4,1505.2,325.7,-0.7,1.8,2470.627,13.28,0.039,277.3
2021-11-17T03:55:03,42.805,6.029,-0.054,-0.018,-0.05,102.0,100.0,101.0,13.4,1505.2,328.0,-0.7,1.8,2470.644,13.28,0.056,251.6
2021-11-17T03:58:03,42.805,6.029,-0.036,-0.007,-0.037,101.0,101.0,100.0,13.4,1505.2,327.6,-0.8,1.8,2470.67,13.28,0.036,259.0
2021-11-17T04:04:03,42.805,6.029,-0.011,0.005,-0.05,101.0,100.0,100.0,13.3,1505.2,331.3,-0.7,1.8,2470.691,13.28,0.012,294.4
2021-11-17T04:07:03,42.805,6.029,-0.054,0.012,-0.046,100.0,101.0,100.0,13.4,1505.2,328.6,-0.8,1.8,2470.717,13.28,0.055,282.5
2021-11-17T04:10:03,42.805,6.029,-0.046,0.0,-0.017,101.0,101.0,101.0,13.4,1505.2,326.3,-0.7,1.8,2470.681,13.28,0.046,270.0
2021-11-17T04:13:03,42.805,6.029,-0.044,-0.005,-0.028,101.0,101.0,102.0,13.4,1505.2,330.9,-0.7,1.8,2470.707,13.28,0.044,263.5
2021-11-17T04:16:03,42.805,6.029,-0.012,-0.01,-0.024,100.0,101.0,100.0,13.3,1505.2,330.3,-0.8,1.9,2470.689,13.28,0.015,230.2
2021-11-17T04:19:03,42.805,6.029,-0.026,0.013,-0.037,101.0,99.0,100.0,13.4,1505.2,330.0,-0.7,1.9,2470.687,13.28,0.029,296.6
2021-11-17T04:22:03,42.805,6.029,-0.054,-0.004,-0.001,103.0,99.0,98.0,13.4,1505.2,328.5,-0.8,1.8,2470.69,13.28,0.054,265.8
2021-11-17T04:25:03,42.805,6.029,-0.026,0.007,-0.038,101.0,101.0,99.0,13.4,1505.2,327.4,-0.8,1.8,2470.694,13.28,0.026,285.1
2021-11-17T04:28:03,42.805,6.029,-0.029,0.001,-0.021,100.0,102.0,100.0,13.3,1505.2,325.5,-0.8,1.8,2470.709,13.28,0.029,272.0
2021-11-17T04:31:03,42.805,6.029,-0.054,-0.014,-0.021,101.0,100.0,99.0,13.3,1505.2,332.1,-0.8,1.8,2470.656,13.28,0.055,255.5
2021-11-17T04:34:03,42.805,6.029,-0.03,-0.001,-0.007,101.0,100.0,100.0,13.4,1505.2,328.6,-0.7,1.8,2470.671,13.28,0.03,268.1
2021-11-17T04:37:03,42.805,6.029,-0.004,0.007,-0.025,100.0,101.0,100.0,13.3,1505.2,327.4,-0.8,1.8,2470.669,13.28,0.008,330.3
2021-11-17T04:40:03,42.805,6.029,-0.043,0.01,-0.014,100.0,100.0,100.0,13.3,1505.2,327.0,-0.7,1.8,2470.7,13.28,0.044,283.1
2021-11-17T04:43:03,42.805,6.029,-0.039,-0.012,-0.032,101.0,101.0,100.0,13.4,1505.2,325.8,-0.7,1.8,2470.7,13.28,0.04,252.9
2021-11-17T04:46:03,42.805,6.029,-0.051,-0.018,-0.013,101.0,101.0,101.0,13.4,1505.2,325.7,-0.8,1.8,2470.736,13.28,0.054,250.6
2021-11-17T04:49:03,42.805,6.029,-0.034,0.002,-0.018,102.0,100.0,100.0,13.3,1505.2,329.4,-0.8,1.9,2470.696,13.28,0.034,273.4
2021-11-17T04:52:03,42.805,6.029,-0.063,-0.01,-0.031,102.0,101.0,100.0,13.4,1505.2,327.1,-0.7,1.8,2470.7,13.28,0.063,261.0
2021-11-17T04:55:03,42.805,6.029,-0.031,-0.019,-0.017,102.0,101.0,100.0,13.4,1505.2,326.9,-0.7,1.8,2470.684,13.28,0.036,238.5
2021-11-17T04:58:03,42.805,6.029,-0.048,-0.04,-0.058,101.0,101.0,99.0,13.4,1505.2,325.2,-0.7,1.8,2470.698,13.28,0.062,230.2
2021-11-17T05:04:03,42.805,6.029,-0.037,-0.027,-0.044,100.0,101.0,101.0,13.4,1505.2,327.7,-0.8,1.8,2470.731,13.28,0.045,233.9
2021-11-17T05:07:03,42.805,6.029,-0.032,-0.002,-0.058,101.0,100.0,99.0,13.4,1505.2,330.8,-0.8,1.8,2470.711,13.28,0.032,266.4
2021-11-17T05:10:03,42.805,6.029,-0.022,0.0,-0.033,101.0,101.0,99.0,13.4,1505.2,327.1,-0.7,1.8,2470.732,13.28,0.022,270.0
2021-11-17T05:13:03,42.805,6.029,-0.039,-0.011,-0.026,100.0,102.0,99.0,13.3,1505.2,331.7,-0.8,1.8,2470.708,13.28,0.04,254.3
2021-11-17T05:16:03,42.805,6.029,-0.054,-0.002,-0.035,100.0,101.0,100.0,13.4,1505.2,325.5,-0.8,1.8,2470.741,13.28,0.054,267.9
2021-11-17T05:19:03,42.805,6.029,-0.05,-0.013,-0.029,102.0,99.0,100.0,13.3,1505.2,325.7,-0.8,1.8,2470.668,13.28,0.051,255.4
2021-11-17T05:22:03,42.805,6.029,-0.029,-0.008,-0.001,101.0,101.0,100.0,13.4,1505.2,326.5,-0.7,1.8,2470.734,13.28,0.03,254.6
2021-11-17T05:25:03,42.805,6.029,-0.021,-0.011,-0.004,103.0,100.0,99.0,13.4,1505.2,327.6,-0.8,1.8,2470.722,13.28,0.023,242.4
2021-11-17T05:28:03,42.805,6.029,-0.033,-0.016,-0.023,102.0,102.0,99.0,13.4,1505.2,327.6,-0.8,1.8,2470.709,13.28,0.036,244.1
2021-11-17T05:31:03,42.805,6.029,-0.042,-0.017,-0.041,100.0,102.0,100.0,13.4,1505.2,328.3,-0.8,1.8,2470.705,13.28,0.045,248.0
2021-11-17T05:34:03,42.805,6.029,-0.049,-0.003,-0.041,100.0,102.0,100.0,13.4,1505.2,331.9,-0.7,1.8,2470.697,13.28,0.049,266.5
2021-11-17T05:37:03,42.805,6.029,-0.037,0.001,-0.048,102.0,100.0,100.0,13.3,1505.2,331.5,-0.8,1.9,2470.732,13.28,0.037,271.5
2021-11-17T05:40:03,42.805,6.029,-0.032,-0.002,-0.011,100.0,102.0,100.0,13.4,1505.2,329.1,-0.8,1.8,2470.7,13.28,0.032,266.4
2021-11-17T05:43:03,42.805,6.029,-0.046,-0.035,-0.041,101.0,101.0,100.0,13.4,1505.2,327.7,-0.8,1.8,2470.702,13.28,0.057,232.7
2021-11-17T05:46:03,42.805,6.029,-0.023,-0.011,-0.012,102.0,100.0,100.0,13.3,1505.2,328.3,-0.8,1.8,2470.697,13.28,0.025,244.4
2021-11-17T05:49:03,42.805,6.029,-0.036,-0.014,-0.054,102.0,102.0,100.0,13.3,1505.2,328.3,-0.7,1.8,2470.707,13.28,0.038,248.8
2021-11-17T05:52:03,42.805,6.029,-0.039,-0.013,-0.027,101.0,101.0,101.0,13.4,1505.2,328.8,-0.7,1.8,2470.696,13.28,0.041,251.6
2021-11-17T05:55:03,42.805,6.029,-0.02,-0.005,-0.028,102.0,101.0,100.0,13.4,1505.2,331.4,-0.7,1.8,2470.738,13.28,0.02,256.0
2021-11-17T05:58:03,42.805,6.029,-0.034,-0.009,0.014,102.0,100.0,100.0,13.3,1505.2,327.4,-0.8,1.8,2470.722,13.28,0.035,255.2
2021-11-17T06:04:03,42.805,6.029,-0.045,-0.012,-0.018,102.0,101.0,100.0,13.3,1505.2,331.5,-0.8,1.8,2470.711,13.28,0.046,255.1
2021-11-17T06:07:03,42.805,6.029,-0.036,-0.003,-0.053,101.0,100.0,100.0,13.4,1505.2,327.8,-0.7,1.8,2470.766,13.28,0.036,265.2
2021-11-17T06:10:03,42.805,6.029,-0.018,-0.011,-0.022,102.0,102.0,100.0,13.4,1505.2,328.2,-0.7,1.8,2470.734,13.28,0.021,238.6
2021-11-17T06:13:03,42.805,6.029,-0.013,-0.014,-0.007,102.0,101.0,100.0,13.4,1505.2,331.1,-0.7,1.9,2470.744,13.28,0.019,222.9
2021-11-17T06:16:03,42.805,6.029,-0.047,-0.026,-0.058,102.0,101.0,100.0,13.4,1505.2,328.4,-0.7,1.8,2470.779,13.28,0.053,241.1
2021-11-17T06:19:03,42.805,6.029,-0.024,-0.001,-0.016,101.0,101.0,101.0,13.4,1505.2,325.6,-0.7,1.8,2470.719,13.28,0.024,267.6
2021-11-17T06:22:03,42.805,6.029,-0.047,-0.009,-0.018,101.0,101.0,100.0,13.4,1505.2,329.5,-0.7,1.8,2470.743,13.28,0.047,259.2
2021-11-17T06:25:03,42.805,6.029,-0.049,0.004,-0.01,100.0,100.0,101.0,13.3,1505.2,328.8,-0.7,1.8,2470.72,13.28,0.049,274.7
2021-11-17T06:28:03,42.805,6.029,-0.033,-0.009,-0.027,102.0,101.0,100.0,13.3,1505.2,329.7,-0.8,1.8,2470.708,13.28,0.034,254.7
2021-11-17T06:31:03,42.805,6.029,-0.062,0.003,-0.003,101.0,101.0,101.0,13.4,1505.2,331.3,-0.7,1.8,2470.719,13.28,0.062,272.8
2021-11-17T06:34:03,42.805,6.029,-0.06,-0.008,-0.032,101.0,101.0,100.0,13.4,1505.2,325.9,-0.7,1.8,2470.737,13.28,0.06,262.4
2021-11-17T06:37:03,42.805,6.029,-0.044,-0.022,-0.02,102.0,101.0,100.0,13.4,1505.2,331.1,-0.8,1.8,2470.717,13.28,0.049,243.4
2021-11-17T06:40:03,42.805,6.029,-0.061,-0.024,-0.065,101.0,101.0,101.0,13.4,1505.2,327.2,-0.7,1.8,2470.715,13.28,0.065,248.5
2021-11-17T06:43:03,42.805,6.029,-0.057,-0.013,-0.013,102.0,101.0,101.0,13.4,1505.2,326.5,-0.7,1.9,2470.737,13.28,0.058,257.2
2021-11-17T06:46:03,42.805,6.029,-0.044,-0.022,-0.057,100.0,101.0,102.0,13.3,1505.2,328.1,-0.7,1.8,2470.697,13.28,0.049,243.4
2021-11-17T06:49:03,42.805,6.029,-0.057,-0.014,-0.032,104.0,100.0,100.0,13.4,1505.2,327.0,-0.7,1.8,2470.71,13.28,0.058,256.2
2021-11-17T06:52:03,42.805,6.029,-0.042,-0.005,-0.001,101.0,101.0,101.0,13.4,1505.2,330.0,-0.8,1.8,2470.723,13.28,0.042,263.2
2021-11-17T06:55:03,42.805,6.029,-0.044,-0.014,-0.013,101.0,102.0,100.0,13.3,1505.2,326.1,-0.8,1.9,2470.712,13.28,0.046,252.4
2021-11-17T06:58:03,42.805,6.029,-0.048,-0.033,-0.053,102.0,101.0,101.0,13.4,1505.2,326.3,-0.8,1.8,2470.741,13.28,0.058,235.5
2021-11-17T07:04:03,42.805,6.029,-0.049,-0.023,-0.035,101.0,101.0,100.0,13.3,1505.2,326.9,-0.8,1.8,2470.74,13.28,0.054,244.9
2021-11-17T07:07:03,42.805,6.029,-0.042,-0.026,-0.039,101.0,101.0,100.0,13.3,1505.2,326.0,-0.7,1.8,2470.742,13.28,0.049,238.2
2021-11-17T07:10:03,42.805,6.029,-0.047,0.003,-0.022,102.0,101.0,99.0,13.4,1505.2,329.2,-0.8,1.8,2470.739,13.28,0.047,273.6
2021-11-17T07:13:03,42.805,6.029,-0.038,-0.008,-0.032,101.0,101.0,100.0,13.4,1505.2,325.7,-0.8,1.8,2470.749,13.28,0.038,258.1
2021-11-17T07:16:03,42.805,6.029,-0.039,-0.003,-0.019,101.0,100.0,99.0,13.3,1505.2,325.4,-0.7,1.8,2470.737,13.28,0.039,265.6
2021-11-17T07:19:03,42.805,6.029,-0.048,-0.008,-0.019,102.0,101.0,99.0,13.4,1505.2,331.3,-0.8,1.8,2470.71,13.28,0.048,260.5
2021-11-17T07:22:03,42.805,6.029,-0.032,-0.011,-0.034,102.0,101.0,98.0,13.3,1505.2,327.2,-0.7,1.8,2470.729,13.28,0.033,251.0
2021-11-17T07:25:03,42.805,6.029,-0.055,0.006,-0.012,101.0,101.0,99.0,13.3,1505.2,331.3,-0.7,1.8,2470.709,13.28,0.055,276.2
2021-11-17T07:28:03,42.805,6.029,-0.073,0.016,-0.025,101.0,102.0,99.0,13.4,1505.2,325.3,-0.8,1.8,2470.727,13.28,0.074,282.4
2021-11-17T07:31:03,42.805,6.029,-0.041,-0.014,-0.039,101.0,102.0,98.0,13.3,1505.2,328.4,-0.8,1.8,2470.751,13.28,0.043,251.1
2021-11-17T07:34:03,42.805,6.029,-0.04,-0.016,-0.029,102.0,101.0,98.0,13.4,1505.2,327.0,-0.7,1.8,2470.707,13.28,0.043,248.2
2021-11-17T07:37:03,42.805,6.029,-0.049,-0.018,-0.045,103.0,100.0,98.0,13.3,1505.2,327.1,-0.8,1.8,2470.71,13.28,0.052,249.8
2021-11-17T07:40:03,42.805,6.029,-0.03,-0.008,-0.01,100.0,101.0,100.0,13.4,1505.2,330.0,-0.7,1.8,2470.721,13.28,0.031,255.1
2021-11-17T07:43:03,42.805,6.029,-0.047,-0.015,-0.008,101.0,101.0,99.0,13.4,1505.2,328.6,-0.7,1.8,2470.727,13.28,0.049,252.3
2021-11-17T07:46:03,42.805,6.029,-0.047,-0.015,-0.039,101.0,101.0,100.0,13.4,1505.2,325.4,-0.7,1.8,2470.733,13.28,0.049,252.3
2021-11-17T07:49:03,42.805,6.029,-0.04,-0.012,0.0,103.0,100.0,100.0,13.3,1505.2,326.5,-0.7,1.8,2470.692,13.28,0.041,253.3
2021-11-17T07:52:03,42.805,6.029,-0.047,-0.006,-0.022,100.0,101.0,99.0,13.3,1505.2,329.6,-0.7,1.8,2470.756,13.28,0.047,262.7
2021-11-17T07:55:03,42.805,6.029,-0.064,-0.025,-0.065,102.0,101.0,99.0,13.4,1505.2,329.4,-0.8,1.8,2470.682,13.28,0.068,248.7
2021-11-17T07:58:03,42.805,6.029,-0.059,0.01,-0.051,102.0,101.0,99.0,13.4,1505.2,331.0,-0.8,1.8,2470.723,13.28,0.059,279.6
2021-11-17T08:04:03,42.805,6.029,-0.041,0.004,-0.025,101.0,100.0,99.0,13.4,1505.2,328.6,-0.7,1.8,2470.693,13.28,0.041,275.6
2021-11-17T08:07:03,42.805,6.029,-0.037,-0.004,-0.029,100.0,102.0,98.0,13.4,1505.2,327.1,-0.8,1.8,2470.715,13.28,0.037,263.8
2021-11-17T08:10:03,42.805,6.029,-0.038,-0.01,-0.045,101.0,103.0,99.0,13.4,1505.2,328.3,-0.7,1.8,2470.71,13.28,0.039,255.3
2021-11-17T08:13:03,42.805,6.029,-0.064,-0.025,-0.038,101.0,103.0,98.0,13.4,1505.2,329.0,-0.7,1.8,2470.745,13.28,0.068,248.7
2021-11-17T08:16:03,42.805,6.029,-0.058,-0.009,-0.045,101.0,101.0,99.0,13.4,1505.2,326.7,-0.7,1.8,2470.721,13.28,0.058,261.2
2021-11-17T08:19:03,42.805,6.029,-0.068,0.0,-0.015,100.0,102.0,99.0,13.4,1505.2,329.1,-0.7,1.8,2470.708,13.28,0.067,270.0
2021-11-17T08:22:03,42.805,6.029,-0.048,-0.001,-0.025,103.0,99.0,98.0,13.3,1505.2,328.7,-0.8,1.8,2470.72,13.28,0.048,268.8
2021-11-17T08:25:03,42.805,6.029,-0.068,0.001,-0.039,100.0,101.0,99.0,13.4,1505.2,326.9,-0.7,1.8,2470.722,13.28,0.068,270.8
2021-11-17T08:28:03,42.805,6.029,-0.068,-0.025,-0.054,100.0,100.0,99.0,13.4,1505.2,324.7,-0.8,1.8,2470.715,13.28,0.072,249.8
2021-11-17T08:31:03,42.805,6.029,-0.036,-0.036,-0.026,101.0,101.0,99.0,13.4,1505.2,326.4,-0.7,1.8,2470.717,13.28,0.05,225.0
2021-11-17T08:34:03,42.805,6.029,-0.052,-0.014,-0.028,102.0,100.0,100.0,13.4,1505.2,326.8,-0.7,1.8,2470.697,13.28,0.053,254.9
